Location: Brissac
(47.3500°N, 0.4500°W)
Time: 14:36:13
(UTC+02:00)

ISS - Pass Details

Date: 20 May 2021
Orbit: 419 x 422 km, 51.6° (Epoch: 25 June)

Event Time Altitude Azimuth Distance (km) Brightness Sun altitude
Rises 22:44:44 0° 263° (W) 2,366 0.7 -9.7°
Reaches altitude 10° 22:46:53 10° 270° (W) 1,504 -0.3 -10.0°
Maximum altitude 22:50:10 48° 346° (NNW) 557 -2.7 -10.4°
Drops below altitude 10° 22:53:28 10° 63° (ENE) 1,509 -1.1 -10.7°
Enters shadow 22:56:52 -4° 71° (ENE) 2,883 0.3 -11.1°
